AKDT,Max TemperatureF,Mean TemperatureF,Min TemperatureF,Max Dew PointF,MeanDew PointF,Min DewpointF,Max Humidity, Mean Humidity, Min Humidity, Max Sea Level PressureIn, Mean Sea Level PressureIn, Min Sea Level PressureIn, Max VisibilityMiles, Mean VisibilityMiles, Min VisibilityMiles, Max Wind SpeedMPH, Mean Wind SpeedMPH, Max Gust SpeedMPH,PrecipitationIn, CloudCover, Events, WindDirDegrees
2012-10-1,33,30,26,25,21,16,86,72,51,30.06,30.01,29.95,10,10,10,18,7,24,0.00,5,,202
2012-10-2,37,34,30,25,21,16,65,61,55,30.07,29.99,29.93,10,10,10,22,16,30,0.00,7,,198
2012-10-3,37,35,33,28,27,25,81,71,60,30.00,29.97,29.94,10,10,7,20,13,25,0.00,8,,204
2012-10-4,37,34,30,30,28,25,86,79,70,29.96,29.87,29.82,10,10,3,12,5,16,0.00,7,,191
2012-10-5,42,38,33,32,27,21,87,65,49,29.92,29.88,29.85,10,10,9,22,9,30,0.00,7,,191
2012-10-6,39,36,32,27,25,21,70,63,52,30.03,29.88,29.80,10,10,10,18,12,25,0.00,7,,204
2012-10-7,35,32,30,25,22,21,80,69,56,30.12,30.07,30.04,10,10,10,15,9,21,0.00,8,,210
2012-10-8,30,26,23,25,21,16,86,77,69,30.42,30.22,30.12,10,7,1,17,7,22,0.00,8,,42
2012-10-9,21,18,14,16,11,7,86,74,68,30.53,30.50,30.42,10,9,3,14,10,18,0.00,7,,40
2012-10-10,17,10,3,7,4,-2,85,71,58,30.50,30.41,30.25,10,10,7,9,6,,0.00,3,,10
2012-10-11,21,12,3,14,5,-4,85,74,58,30.25,29.99,29.75,10,8,2,14,5,,0.00,4,,119
2012-10-12,21,19,17,14,12,12,80,76,68,29.74,29.67,29.63,10,5,2,14,10,21,0.00,8,,51
2012-10-13,17,10,1,12,9,-6,79,75,72,29.62,29.55,29.45,10,8,2,9,6,,0.00,8,,34
2012-10-14,15,4,-7,7,-1,-15,79,73,62,29.45,29.32,29.26,10,10,10,12,3,,0.00,5,,43
2012-10-15,15,12,10,7,5,3,79,71,58,29.38,29.33,29.27,10,7,3,20,12,26,0.00,8,,51
2012-10-16,21,16,10,14,8,1,80,75,67,29.66,29.51,29.39,10,4,1,21,14,28,0.00,8,,42
2012-10-17,21,20,19,16,13,12,86,73,68,29.83,29.75,29.66,10,6,2,15,9,18,0.00,8,,55
2012-10-18,24,22,19,16,15,12,86,75,59,30.08,29.98,29.83,10,6,2,15,10,20,0.00,8,,46
2012-10-19,19,8,-2,16,6,-9,86,77,66,30.21,30.14,30.09,10,8,0,10,5,,0.00,5,,37
2012-10-20,10,2,-5,5,-3,-11,85,75,66,30.40,30.31,30.21,10,10,7,18,4,21,0.00,0,,186
2012-10-21,10,6,3,3,1,-2,79,72,67,30.40,30.34,30.27,10,10,10,23,16,29,0.00,0,,176
2012-10-22,12,6,0,3,-1,-9,73,69,62,30.37,30.29,30.25,10,10,8,21,14,25,0.00,0,,182
2012-10-23,24,11,-2,19,11,-11,86,75,53,30.60,30.49,30.38,10,10,3,8,4,,0.00,7,,21
2012-10-24,21,12,3,16,6,-6,86,76,66,30.65,30.62,30.57,10,9,1,16,5,17,0.00,2,,177
2012-10-25,17,14,12,10,8,3,79,72,67,30.57,30.43,30.31,10,9,3,18,13,23,0.00,5,,185
2012-10-26,21,18,15,16,12,10,86,76,73,30.32,30.28,30.22,10,10,5,10,7,,0.00,8,,194
2012-10-27,28,22,17,25,19,12,86,81,74,30.22,30.12,30.05,10,5,0,14,7,17,0.00,8,,72
2012-10-28,30,24,19,21,16,12,80,74,64,30.12,30.06,29.92,10,5,1,16,8,21,0.00,8,,34
2012-10-29,19,14,8,12,7,1,79,69,53,29.97,29.89,29.84,10,6,1,14,7,22,0.00,8,,31
2012-10-30,17,12,8,9,6,1,85,71,58,30.16,30.06,29.97,10,2,1,15,5,23,0.00,8,,22
2012-10-31,15,14,14,9,6,3,73,67,58,30.24,30.21,30.16,8,2,0,21,15,30,0.00,8,,8